HB9EYZ-1 Weather Reports


time (UTC)temp
C
wind
direction
speed
KPH
gust
KPH
rain 1hr
cm
rain 24hr
cm
rain mn
cm
humidity
%
barometer
mb
20260506014527 10 231 0.0 0.0 0.00 0.00 2.54 51 1004.1
20260506014010 10 231 0.0 0.0 0.00 0.00 2.54 51 1004.0
20260506012447 10 231 0.0 0.0 0.00 0.00 2.54 51 1004.4
20260506011930 10 230 0.0 0.0 0.00 0.00 2.54 51 1004.3
20260506011414 10 230 0.0 0.0 0.00 0.00 2.54 51 1004.2
20260506010857 10 230 0.0 0.0 0.00 0.00 2.54 51 1004.3
20260506010340 10 230 0.0 0.0 0.00 0.00 2.54 51 1004.4
20260506005824 10 230 0.0 0.0 0.00 0.00 2.54 51 1004.3
20260506005307 10 231 0.0 0.0 0.00 0.00 2.54 52 1004.6
20260506004751 10 235 0.0 0.0 0.00 0.00 2.54 52 1004.5
20260506004234 10 231 0.0 0.0 0.00 0.00 2.54 52 1004.6
20260506003717 10 232 0.0 0.0 0.00 0.00 2.54 52 1004.9
20260506003201 10 230 0.0 0.0 0.00 0.00 2.54 52 1004.9
20260506002644 10 230 0.0 0.0 0.00 0.00 2.54 52 1004.7
20260506002127 10 230 0.0 0.0 0.00 0.00 2.54 52 1004.8
20260506001611 10 230 0.0 0.0 0.00 0.00 2.54 52 1004.8
20260505230119 10 227 0.0 0.0 0.00 0.00 2.54 54 1005.2
20260505225603 10 227 0.0 0.0 0.00 0.00 2.54 55 1005.6
20260505225046 10 227 0.0 0.0 0.00 0.00 2.54 55 1005.4
20260505224530 10 226 0.0 0.0 0.00 0.00 2.54 55 1005.4
20260505224006 10 229 0.0 0.0 0.00 0.00 2.54 55 1005.3
20260505222948 10 227 0.0 0.0 0.00 0.00 2.54 55 1005.5
20260505222431 10 227 0.0 0.0 0.00 0.00 2.54 55 1005.4
20260505221915 10 227 0.0 0.0 0.00 0.00 2.54 54 1005.3
20260505221357 10 228 0.0 0.0 0.00 0.00 2.54 54 1005.3
20260505220841 10 228 0.0 0.0 0.00 0.00 2.54 54 1005.3
20260505220324 10 228 0.0 0.0 0.00 0.00 2.54 54 1005.5
20260505215251 10 224 0.0 0.0 0.10 0.00 2.54 54 1005.6
20260505214735 10 224 0.0 0.0 0.10 0.00 2.54 54 1005.7
20260505214218 10 230 0.0 0.0 0.10 0.00 2.54 54 1005.4
20260505213701 10 230 0.0 0.0 0.10 0.00 2.54 54 1005.4
20260505213145 10 222 0.0 0.0 0.10 0.00 2.54 54 1005.6
20260505212628 10 222 0.0 0.0 0.10 0.00 2.54 54 1005.4
20260505212112 10 222 0.0 0.0 0.10 0.00 2.54 54 1005.6
20260505211550 10 222 0.0 0.0 0.10 0.00 2.54 55 1005.8
20260505211033 10 227 0.0 0.0 0.10 0.00 2.54 55 1005.7
20260505210516 10 230 0.0 0.0 0.10 0.00 2.54 54 1005.6
20260505210000 11 223 0.0 0.0 0.10 0.00 2.54 53 1005.6
20260505205443 11 230 0.0 0.0 0.10 0.00 2.54 53 1006.0
20260505204926 11 231 0.0 0.0 0.10 0.00 2.54 52 1005.8
20260505204410 11 230 0.0 0.0 0.10 0.00 2.54 52 1006.1
20260505203853 11 230 0.0 0.0 0.10 0.00 2.54 52 1005.6
20260505203336 11 231 0.0 0.0 0.10 0.00 2.54 52 1005.7
20260505202819 11 231 0.0 0.0 0.10 0.00 2.54 51 1005.7
20260505202307 11 231 0.0 0.0 0.10 0.00 2.54 51 1005.7
20260505201746 11 231 0.0 0.0 0.10 0.00 2.54 51 1005.6
20260505201229 11 231 0.0 0.0 0.10 0.00 2.54 51 1005.5
20260505200712 11 231 0.0 0.0 0.10 0.00 2.54 50 1005.4
20260505200155 11 231 0.0 0.0 0.10 0.00 2.54 50 1005.5
20260505195638 12 231 0.0 0.0 0.10 0.00 2.54 50 1005.5
20260505195121 12 231 0.0 0.0 0.10 0.00 2.54 50 1005.3
20260505194605 12 231 0.0 0.0 0.10 0.00 2.54 49 1005.3
20260505194048 12 231 0.0 0.0 0.10 0.00 2.54 48 1005.3
20260505193532 12 231 0.0 0.0 0.10 0.00 2.54 48 1005.3
20260505193015 12 231 0.0 0.0 0.10 0.00 2.54 48 1005.0
20260505192459 12 231 0.0 0.0 0.10 0.00 2.54 48 1005.1
20260505191942 12 231 0.0 0.0 0.10 0.00 2.54 48 1004.9
20260505191425 12 231 0.0 0.0 0.10 0.00 2.54 47 1004.8
20260505190909 12 231 0.0 0.0 0.10 0.00 2.54 46 1005.0
20260505190351 13 237 0.0 0.0 0.10 0.00 2.54 44 1005.1
20260505185834 13 230 0.0 0.0 0.10 0.00 2.54 43 1005.1
20260505185317 13 230 0.0 0.0 0.10 0.00 2.54 43 1004.7
20260505184800 13 222 0.0 0.0 0.10 0.00 2.54 41 1004.7
20260505184243 14 223 0.0 0.0 0.10 0.00 2.54 42 1004.7
20260505183725 14 229 0.0 0.0 0.10 0.00 2.54 42 1004.7
20260505183209 15 228 0.0 0.0 0.10 0.00 2.54 41 1004.9
20260505182652 15 228 0.0 0.0 0.10 0.00 2.54 38 1004.9
20260505182128 15 228 0.0 0.0 0.10 0.00 2.54 38 1004.5
20260505181612 15 228 0.0 0.0 0.10 0.00 2.54 38 1004.5
20260505181055 15 235 0.0 0.0 0.10 0.00 2.54 37 1004.5
20260505180539 15 235 0.0 0.0 0.10 0.00 2.54 37 1004.5
20260505180022 15 226 0.0 0.0 0.10 0.00 2.54 36 1004.4
20260505174448 15 234 0.0 0.0 0.10 0.00 2.54 37 1004.3
20260505173931 15 234 0.0 0.0 0.10 0.00 2.54 36 1004.4
20260505173415 15 234 0.0 0.0 0.10 0.00 2.54 37 1004.7
20260505172858 15 234 0.0 0.0 0.10 0.00 2.54 38 1004.5
20260505172342 15 235 0.0 0.0 0.10 0.00 2.54 36 1004.4
20260505171825 15 233 0.0 0.0 0.10 0.00 2.54 33 1004.3
20260505171307 15 234 0.0 0.0 0.10 0.00 2.54 34 1004.0
20260505170751 15 218 0.0 0.0 0.10 0.00 2.54 34 1004.1
20260505170234 15 236 0.0 0.0 0.10 0.00 2.54 32 1004.1
20260505165715 16 228 0.0 0.0 0.10 0.00 2.54 32 1004.0
20260505165157 16 229 0.0 0.0 0.10 0.00 2.54 32 1003.8
20260505164638 16 229 0.0 0.0 0.10 0.00 2.54 31 1004.0
20260505164122 16 225 0.0 0.0 0.10 0.00 2.54 32 1004.0
20260505163604 16 209 0.0 0.0 0.10 0.00 2.54 33 1003.9
20260505163048 16 197 0.0 0.0 0.10 0.00 2.54 32 1004.1
20260505162531 16 249 0.0 0.0 0.10 0.00 2.54 28 1004.1
20260505162015 16 252 0.0 0.0 0.10 0.00 2.54 28 1004.1
20260505160956 16 219 0.0 0.0 0.10 0.00 2.54 31 1004.3
20260505160439 16 228 0.0 0.0 0.10 0.00 2.54 33 1004.4
20260505153258 16 218 0.0 0.0 0.10 0.00 2.54 39 1004.4
20260505152739 16 228 0.0 0.0 0.10 0.00 2.54 38 1004.3
20260505152222 16 227 0.0 0.0 0.10 0.00 2.54 36 1004.3
20260505151705 16 210 0.0 0.0 0.08 0.00 2.54 31 1004.3
20260505151148 16 210 0.0 0.0 0.08 0.00 2.54 31 1004.5
20260505150632 16 210 0.0 0.0 0.08 0.00 2.54 32 1004.2
20260505150115 16 210 0.0 0.0 0.08 0.00 2.54 31 1004.2
20260505140334 18 234 0.0 0.0 0.08 0.00 2.54 24 1003.5
20260505123951 18 222 0.0 0.0 0.08 0.00 2.54 24 1004.3
20260505123434 18 214 0.0 0.0 0.08 0.00 2.54 24 1004.0
20260505122917 19 228 0.0 0.0 0.08 0.00 2.54 24 1004.1
20260505122400 19 192 0.0 0.0 0.08 0.00 2.54 23 1004.1
20260505121841 20 213 0.0 0.0 0.08 0.00 2.54 22 1004.0
20260505121325 20 220 0.0 0.0 0.08 0.00 2.54 23 1004.2
20260505120808 20 211 0.0 0.0 0.08 0.00 2.54 23 1004.8
20260505120249 20 173 0.0 0.0 0.08 0.00 2.54 23 1004.4
20260505115732 19 185 0.0 0.0 0.08 0.00 2.54 24 1004.6
20260505115215 18 211 0.0 0.0 0.08 0.00 2.54 25 1004.4
20260505114658 18 176 0.0 0.0 0.08 0.00 2.54 25 1004.3
20260505114140 18 215 0.0 0.0 0.08 0.00 2.54 26 1004.6
20260505113624 17 195 0.0 0.0 0.08 0.00 2.54 25 1004.9
20260505113107 17 229 0.0 0.0 0.08 0.00 2.54 30 1004.5
20260505112550 16 228 0.0 0.0 0.08 0.00 2.54 30 1004.9
20260505112032 16 220 0.0 0.0 0.08 0.00 2.54 32 1004.9
20260505111515 15 226 0.0 0.0 0.08 0.00 2.54 34 1004.9
20260505110958 15 229 0.0 0.0 0.08 0.00 2.54 35 1004.9
20260505110441 15 225 0.0 0.0 0.08 0.00 2.54 34 1005.0
20260505101711 13 230 0.0 0.0 0.08 0.00 2.54 40 1005.2
20260505101154 13 222 0.0 0.0 0.08 0.00 2.54 41 1005.5
20260505100637 13 221 0.0 0.0 0.08 0.00 2.54 44 1005.4
20260505100120 13 224 0.0 0.0 0.08 0.00 2.54 47 1005.4
20260505095604 13 223 0.0 0.0 0.08 0.00 2.54 51 1005.0
20260505095047 13 219 0.0 0.0 0.08 0.00 2.54 52 1005.1
20260505094530 13 226 0.0 0.0 0.08 0.00 2.54 53 1005.3
20260505094013 13 217 0.0 0.0 0.08 0.00 2.54 54 1005.1
20260505092953 13 222 0.0 0.0 0.08 0.00 2.54 55 1005.1
20260505092436 13 219 0.0 0.0 0.08 0.00 2.54 59 1005.3
20260505091919 13 230 0.0 0.0 0.08 0.00 2.54 60 1005.4
20260505091400 13 223 0.0 0.0 0.08 0.00 2.54 62 1005.5
20260505090844 13 213 0.0 0.0 0.08 0.00 2.54 65 1005.2
20260505090327 13 223 0.0 0.0 0.08 0.00 2.54 72 1005.2
20260505085811 13 225 0.0 0.0 0.08 0.00 2.54 74 1005.0
20260505085254 13 219 0.0 0.0 0.08 0.00 2.54 76 1005.3
20260505084737 13 218 0.0 0.0 0.08 0.00 2.54 78 1005.6
20260505084221 12 239 0.0 0.0 0.08 0.00 2.54 79 1005.4
20260505083703 12 236 0.0 0.0 0.08 0.00 2.54 79 1005.3
20260505083147 12 220 0.0 0.0 0.08 0.00 2.54 79 1005.3
20260505082630 12 228 0.0 0.0 0.08 0.00 2.54 80 1005.2
20260505082114 12 229 0.0 0.0 0.08 0.00 2.54 80 1005.3
20260505081557 12 228 0.0 0.0 0.08 0.00 2.54 80 1005.3
20260505081041 12 226 0.0 0.0 0.08 0.00 2.54 81 1005.5
20260505080524 12 225 0.0 0.0 0.08 0.00 2.54 82 1005.4
20260505080008 12 231 0.0 0.0 0.08 0.00 2.54 82 1005.8
20260505073947 12 236 0.0 0.0 0.05 0.00 2.54 81 1005.9
20260505073430 12 228 0.0 0.0 0.05 0.00 2.54 81 1006.2
20260505072914 12 228 0.0 0.0 0.05 0.00 2.54 81 1005.9
20260505072358 12 228 0.0 0.0 0.03 0.00 2.54 81 1006.1
20260505071841 12 228 0.0 0.0 0.03 0.00 2.54 81 1005.9
20260505071324 12 228 0.0 0.0 0.00 0.00 2.54 81 1006.1
20260505070808 12 229 0.0 0.0 0.00 0.00 2.54 82 1006.0
20260505070251 12 229 0.0 0.0 0.00 0.00 2.54 82 1006.0
20260505065735 12 229 0.0 0.0 0.00 0.00 2.54 82 1006.0
20260505065218 12 229 0.0 0.0 0.00 0.00 2.54 82 1006.0
20260505064702 12 229 0.0 0.0 0.00 0.00 2.54 82 1006.0
20260505064145 12 229 0.0 0.0 0.00 0.00 2.54 82 1006.0
20260505063629 12 228 0.0 0.0 0.00 0.00 2.54 82 1006.1
20260505063111 12 230 0.0 0.0 0.00 0.00 2.54 82 1006.0
20260505062555 12 230 0.0 0.0 0.00 0.00 2.54 82 1006.2
20260505062038 12 233 0.0 0.0 0.00 0.00 2.54 82 1006.2
20260505061522 12 226 0.0 0.0 0.00 0.00 2.54 83 1006.2
20260505061005 12 231 0.0 0.0 0.00 0.00 2.54 83 1006.3
20260505055946 12 228 0.0 0.0 0.00 0.00 2.54 83 1006.6
20260505055430 12 227 0.0 0.0 0.00 0.00 2.54 83 1006.3
20260505054913 12 228 0.0 0.0 0.00 0.00 2.54 83 1006.1
20260505054354 12 229 0.0 0.0 0.00 0.00 2.54 83 1006.2
20260505053837 11 229 0.0 0.0 0.00 0.00 2.54 83 1006.3
20260505053320 11 233 0.0 0.0 0.00 0.00 2.54 83 1006.1
20260505052803 11 234 0.0 0.0 0.00 0.00 2.54 83 1006.1
20260505052246 11 236 0.0 0.0 0.00 0.00 2.54 83 1006.0
20260505051729 11 232 0.0 0.0 0.00 0.00 2.54 83 1005.8
20260505051210 11 231 0.0 0.0 0.00 0.00 2.54 83 1006.0
20260505050653 11 231 0.0 0.0 0.00 0.00 2.54 83 1005.9
20260505050136 11 231 0.0 0.0 0.00 0.00 2.54 83 1006.1
20260505041417 11 232 0.0 0.0 0.00 0.00 2.54 83 1006.1
20260505040859 11 232 0.0 0.0 0.00 0.00 2.54 83 1006.3
20260505040343 11 232 0.0 0.0 0.00 0.00 2.54 84 1006.2
20260505035825 11 232 0.0 0.0 0.00 0.00 2.54 84 1006.0
20260505035308 11 230 0.0 0.0 0.00 0.00 2.54 84 1006.0
20260505034751 11 230 0.0 0.0 0.00 0.00 2.54 83 1005.8
20260505034234 11 230 0.0 0.0 0.00 0.00 2.54 83 1005.8
20260505033718 11 230 0.0 0.0 0.00 0.00 2.54 83 1006.1
20260505033201 11 230 0.0 0.0 0.00 0.00 2.54 83 1006.0
20260505032644 11 234 0.0 0.0 0.00 0.00 2.54 83 1006.1
20260505032128 11 235 0.0 0.0 0.00 0.00 2.54 82 1006.2
20260505031611 11 235 0.0 0.0 0.00 0.00 2.54 83 1006.3
20260505031054 11 231 0.0 0.0 0.00 0.00 2.54 83 1006.2
20260505030537 11 231 0.0 0.0 0.00 0.00 2.54 83 1006.3
20260505030021 11 229 0.0 0.0 0.00 0.00 2.54 83 1006.4
20260505025002 11 229 0.0 0.0 0.00 0.00 2.54 83 1006.5
20260505024446 11 228 0.0 0.0 0.00 0.00 2.54 83 1006.4
20260505023929 11 234 0.0 0.0 0.00 0.00 2.54 83 1006.4
20260505023413 11 232 0.0 0.0 0.00 0.00 2.54 83 1006.6
20260505022856 11 232 0.0 0.0 0.00 0.00 2.54 83 1006.7
20260505022340 11 231 0.0 0.0 0.00 0.00 2.54 83 1006.8
20260505021822 11 234 0.0 0.0 0.00 0.00 2.54 83 1006.6
20260505021306 11 238 0.0 0.0 0.00 0.00 2.54 83 1006.8
20260505020749 11 238 0.0 0.0 0.00 0.00 2.54 83 1006.6
20260505020232 11 238 0.0 0.0 0.00 0.00 2.54 83 1006.8
20260505015715 11 228 0.0 0.0 0.00 0.00 2.54 83 1006.6
20260505015158 11 241 0.0 0.0 0.00 0.00 2.54 83 1006.8
20260505014639 11 230 0.0 0.0 0.00 0.00 2.54 82 1006.8